This demonstration page uses our WeatherBlox Daily Observations layout. Learn more.

Left ArrowRight Arrow

44.89941, -97.11507

Hourly Observations for July 8, 2016

Temp ( °F °C ) Dew Point ( °F °C ) Humidity (%) Winds ( mph kmh ) Pressure ( in mb ) Visibility ( mi km ) Precip ( " mm )
12:53 am 00:53 Cloudy 64 17.8 58 14.4 81 81 WSW 8 13 29.84 1011 10 16 0.00 0.00
1:53 am 01:53 Clear 64 17.8 55 12.8 73 73 W 12 19 29.85 1011 10 16 0.00 0.00
2:53 am 02:53 Clear 63 17.2 54 12.2 73 73 WNW 8 13 29.87 1011 10 16 0.00 0.00
3:53 am 03:53 Clear 59 15 53 11.7 81 81 W 8 13 29.88 1012 10 16 0.00 0.00
4:53 am 04:53 Clear 61 16.1 53 11.7 75 75 WNW 10 17 29.88 1012 10 16 0.00 0.00
5:53 am 05:53 Sunny 57 13.9 53 11.7 87 87 W 7 11 29.91 1013 10 16 0.00 0.00
6:53 am 06:53 Sunny 60 15.6 54 12.2 80 80 WNW 13 20 29.93 1014 10 16 0.00 0.00
7:53 am 07:53 Sunny 62 16.7 55 12.8 78 78 NW 14 22 29.94 1014 10 16 0.00 0.00
8:53 am 08:53 Sunny 66 18.9 55 12.8 68 68 NW 13 20 29.96 1015 10 16 0.00 0.00
9:53 am 09:53 Sunny 69 20.6 56 13.3 63 63 NW 10 17 29.98 1015 10 16 0.00 0.00
10:53 am 10:53 Sunny 72 22.2 55 12.8 55 55 NW 12 19 29.98 1015 10 16 0.00 0.00
11:53 am 11:53 Sunny 74 23.3 55 12.8 52 52 NNW 12 19 29.99 1016 10 16 0.00 0.00
12:53 pm 12:53 Sunny 76 24.4 57 13.9 52 52 NNW 12 19 29.99 1016 10 16 0.00 0.00
1:53 pm 13:53 Sunny 77 25 55 12.8 47 47 NNW 13 20 29.99 1016 10 16 0.00 0.00
2:53 pm 14:53 Sunny 79 26.1 56 13.3 45 45 NNW 12 19 29.98 1015 10 16 0.00 0.00
3:53 pm 15:53 Sunny 80 26.7 55 12.8 42 42 NNW 12 19 29.99 1016 10 16 0.00 0.00
4:53 pm 16:53 Sunny 80 26.7 54 12.2 41 41 NW 10 17 29.98 1015 10 16 0.00 0.00
5:53 pm 17:53 Sunny 80 26.7 54 12.2 41 41 NNW 10 17 29.98 1015 10 16 0.00 0.00
6:53 pm 18:53 Sunny 79 26.1 54 12.2 42 42 NNW 7 11 29.98 1015 10 16 0.00 0.00
7:53 pm 19:53 Sunny 78 25.6 54 12.2 43 43 N 5 7 29.98 1015 10 16 0.00 0.00
8:53 pm 20:53 Sunny 73 22.8 55 12.8 53 53 N 5 7 29.99 1016 10 16 0.00 0.00
9:53 pm 21:53 Clear 67 19.4 56 13.3 68 68 NNE 3 6 30.01 1016 10 16 0.00 0.00
10:53 pm 22:53 Clear 69 20.6 57 13.9 66 66 Calm 30.03 1017 10 16 0.00 0.00
11:53 pm 23:53 Clear 67 19.4 57 13.9 71 71 SSE 3 6 30.03 1017 10 16 0.00 0.00

Powered by AerisWeather